DW4063 Weather Reports


Display with metric or nautical units.
time (UTC)temp
F
wind
direction
speed
MPH
gust
MPH
rain 1hr
in
rain 24hr
in
rain mn
in
humidity
%
barometer
mb
20260902073034 74 229 0.0 0.0 0.00 0.00 0.00 91 1015.2
20260902071530 74 229 0.0 0.0 0.00 0.00 0.00 91 1015.0
20260902070030 75 229 0.0 0.0 0.00 0.00 0.00 91 1015.1
20260902064527 75 229 0.0 0.0 0.00 0.00 0.00 90 1015.2
20260902063037 75 229 0.0 0.0 0.00 0.00 0.00 90 1015.3
20260902061543 75 229 0.0 0.0 0.00 0.00 0.00 89 1015.2
20260902060033 75 229 0.0 0.0 0.00 0.00 0.00 89 1015.1
20260902054537 76 229 0.0 0.0 0.00 0.00 0.00 88 1015.1
20260902053027 76 229 0.0 0.0 0.00 0.00 0.00 88 1015.2
20260902051527 77 229 0.0 0.0 0.00 0.00 0.00 87 1015.2
20260902050025 77 229 0.0 0.0 0.00 0.00 0.00 87 1015.3
20260902044526 78 229 0.0 0.0 0.00 0.00 0.00 86 1015.3
20260902043014 78 229 0.0 0.0 0.00 0.00 0.00 85 1015.2
20260902041531 79 229 0.0 0.0 0.00 0.00 0.00 84 1015.3
20260902040034 79 229 0.0 0.0 0.00 0.00 0.00 83 1015.3
20260902034531 80 229 0.0 1.0 0.00 0.00 0.00 82 1015.4
20260902033027 80 229 0.0 0.0 0.00 0.00 0.00 82 1015.5
20260902031535 81 292 0.0 1.0 0.00 0.00 0.00 81 1015.6
20260902030020 81 249 0.0 0.0 0.00 0.00 0.00 80 1015.6
20260902024514 82 249 0.0 0.0 0.00 0.00 0.00 78 1015.4
20260902023036 83 249 0.0 1.0 0.00 0.00 0.00 77 1015.3
20260902021508 83 249 0.0 0.0 0.00 0.00 0.00 76 1015.4
20260902020029 84 249 0.0 2.0 0.00 0.00 0.00 74 1015.2
20260902014528 85 246 0.0 2.0 0.00 0.00 0.00 72 1015.1
20260902013020 85 300 0.0 1.0 0.00 0.00 0.00 72 1015.0
20260902011515 85 240 0.0 3.0 0.00 0.00 0.00 71 1014.8
20260902010013 86 219 0.0 2.0 0.00 0.00 0.00 72 1014.6
20260902004510 87 253 0.0 3.0 0.00 0.00 0.00 71 1014.5
20260902003032 87 243 0.0 2.0 0.00 0.00 0.00 71 1014.3
20260902001529 88 200 0.0 3.0 0.00 0.00 0.00 69 1014.5
20260902000023 89 206 0.0 3.0 0.00 0.00 0.00 68 1014.5
20260901234518 90 191 1.0 3.0 0.00 0.00 0.00 68 1014.7
20260901233014 90 207 1.0 4.0 0.00 0.00 0.00 67 1014.7
20260901231512 90 222 1.0 3.0 0.00 0.00 0.00 66 1014.7
20260901230033 91 242 0.0 3.0 0.00 0.00 0.00 68 1014.7
20260901224529 91 219 0.0 3.0 0.00 0.00 0.00 69 1014.7
20260901223027 92 241 0.0 3.0 0.00 0.01 0.00 71 1014.8
20260901221555 92 234 0.0 3.0 0.00 0.10 0.00 69 1014.8
20260901220027 93 234 0.0 3.0 0.00 0.10 0.00 68 1014.8
20260901214511 93 202 0.0 5.0 0.00 0.10 0.00 67 1014.7
20260901213032 93 198 0.0 3.0 0.00 0.10 0.00 64 1014.6
20260901211533 94 272 0.0 4.0 0.00 0.10 0.00 62 1014.7
20260901210031 94 194 0.0 2.0 0.00 0.10 0.00 67 1014.7
20260901204525 94 240 0.0 3.0 0.00 0.10 0.00 61 1014.8
20260901203032 95 229 0.0 3.0 0.00 0.10 0.00 62 1014.9
20260901201533 95 352 0.0 4.0 0.00 0.10 0.00 61 1015.0
20260901200037 95 242 0.0 4.0 0.00 0.11 0.00 59 1015.0
20260901194533 95 197 1.0 4.0 0.00 0.11 0.00 61 1015.0
20260901193032 94 230 2.0 4.0 0.00 0.12 0.00 59 1015.0
20260901191542 94 311 1.0 4.0 0.00 0.12 0.00 61 1015.2
20260901190025 93 218 0.0 3.0 0.00 0.12 0.00 63 1015.2
20260901184536 93 194 1.0 4.0 0.00 0.12 0.00 66 1015.4
20260901183046 93 229 0.0 5.0 0.00 0.12 0.00 66 1015.4
20260901181532 92 241 1.0 4.0 0.00 0.12 0.00 65 1015.5
20260901180031 92 279 1.0 4.0 0.00 0.12 0.00 68 1015.6
20260901174528 91 228 1.0 4.0 0.00 0.12 0.00 67 1015.6
20260901173027 90 321 1.0 7.0 0.00 0.12 0.00 68 1015.7
20260901171520 90 234 1.0 4.0 0.00 0.12 0.00 69 1015.8
20260901170022 89 321 0.0 3.0 0.00 0.12 0.00 71 1015.9
20260901164532 88 242 1.0 3.0 0.00 0.12 0.00 71 1016.0
20260901163042 87 317 1.0 4.0 0.00 0.12 0.00 72 1016.0
20260901161535 87 263 1.0 3.0 0.00 0.12 0.00 74 1016.0
20260901160032 86 276 1.0 3.0 0.00 0.12 0.00 75 1015.9
20260901154524 85 237 0.0 3.0 0.00 0.12 0.00 77 1016.0
20260901153025 84 250 0.0 3.0 0.00 0.12 0.00 78 1015.9
20260901151539 83 232 0.0 4.0 0.00 0.12 0.00 80 1016.0
20260901150041 82 204 0.0 3.0 0.00 0.12 0.00 81 1016.0
20260901144538 81 240 0.0 3.0 0.00 0.12 0.00 82 1016.0
20260901143030 80 251 1.0 3.0 0.00 0.13 0.00 83 1016.0
20260901141504 79 214 0.0 2.0 0.00 0.18 0.00 85 1016.0
20260901140027 78 229 0.0 3.0 0.00 0.18 0.00 86 1015.8
20260901134518 77 207 0.0 2.0 0.00 0.20 0.00 88 1015.9
20260901133014 76 260 0.0 2.0 0.00 0.21 0.00 90 1016.0
20260901131511 76 235 0.0 1.0 0.00 0.21 0.00 92 1016.1
20260901130018 75 280 0.0 1.0 0.00 0.22 0.00 91 1016.2
20260901124532 75 247 0.0 2.0 0.00 0.27 0.00 92 1016.3
20260901123025 75 240 0.0 2.0 0.00 0.29 0.00 92 1016.1
20260901121521 74 313 0.0 1.0 0.00 0.29 0.00 93 1016.0
20260901120020 74 329 0.0 0.0 0.00 0.29 0.00 92 1015.6
20260901114510 74 235 0.0 2.0 0.00 0.29 0.00 92 1015.5
20260901113017 74 230 0.0 0.0 0.00 0.29 0.00 92 1015.4
20260901111531 74 230 0.0 0.0 0.00 0.29 0.00 91 1015.1
20260901110026 75 230 0.0 0.0 0.00 0.29 0.00 91 1015.0
20260901104526 75 230 0.0 0.0 0.00 0.29 0.00 90 1015.1
20260901103023 75 230 0.0 0.0 0.00 0.29 0.00 90 1015.1
20260901101535 76 230 0.0 0.0 0.00 0.29 0.00 89 1014.9
20260901100013 76 230 0.0 1.0 0.00 0.29 0.00 88 1015.0
20260901094539 76 266 0.0 1.0 0.00 0.29 0.00 88 1015.0
20260901093030 76 232 0.0 2.0 0.00 0.29 0.00 88 1014.8
20260901091545 76 221 0.0 2.0 0.00 0.29 0.00 87 1014.9
20260901090023 76 343 0.0 2.0 0.00 0.29 0.00 88 1014.7
20260901084533 76 209 0.0 1.0 0.00 0.29 0.00 88 1014.6
20260901083011 76 256 0.0 1.0 0.00 0.29 0.00 88 1014.7
20260901081535 76 209 0.0 2.0 0.00 0.29 0.00 89 1014.7
20260901080112 76 238 0.0 2.0 0.00 0.29 0.00 89 1014.6
20260901074529 75 238 0.0 2.0 0.00 0.29 0.00 90 1014.7